[[{"header":{"parameterUnit":"m.s-1","parameterCategory":1,"la1":30.2991,"la2":30.254,"lo1":-89.0895,"lo2":-89.0444,"dy":0.0017,"dx":0.0017,"nx":28,"ny":28,"refTime":"2023-05-01T21:00:00:Z","depth":0,"parameterNumber":2,"parameterNumberName":"U-component_of_WINDS"},"data":[0,0,0,0,0,0,0,0,0,0,0,0,0,0,0,0,0,0,0,0,0,0,0,0,0,0,0,0,0,0,0,0,0,0,0,0,0,0,0,0,0,0,0,0,0,0,0,0,0,0,0,0,0,0,0,0,0,0,2.2555,2.2556,0,2.2701,2.2702,2.2704,2.2713,2.2712,2.271,2.2709,2.2859,2.2865,2.287,0,0,0,0,0,0,0,0,0,0,0,0,0,2.2285,2.229,2.2555,2.2557,2.2558,2.27,2.2703,2.2705,2.2714,2.2712,2.271,2.2708,2.2857,2.2864,2.2871,0,0,0,0,0,0,0,0,0,0,0,0,0,2.2414,2.2292,2.2554,2.258,2.2584,2.27,2.2703,2.2705,2.2714,2.2712,2.2709,2.2707,2.2855,2.2863,2.2872,2.2973,0,0,2.2897,2.2901,0,0,0,0,0,0,0,0,2.2407,2.2424,2.2574,2.2579,2.2583,2.2686,2.2663,2.2795,2.2715,2.2665,2.2708,2.2706,2.2804,2.2816,2.2849,2.298,2.2986,2.2898,2.2903,2.2906,2.2909,0,0,0,0,0,0,0,2.2398,2.2418,2.2613,2.2577,2.2582,2.2585,2.26,2.2688,2.2746,2.2669,2.267,2.2687,2.2806,2.2841,2.2853,2.2988,2.2898,2.2905,2.291,2.2913,2.3209,2.3212,0,0,0,0,0,0,2.2384,2.241,2.2608,2.2617,2.2487,2.2592,2.2609,2.2656,2.2745,2.2757,2.2689,2.2687,2.2828,2.2843,2.2858,2.2982,2.2906,2.2914,2.2919,2.3206,2.321,2.3213,0,0,0,0,0,0,2.2378,2.2401,2.2602,2.2514,2.254,2.2599,2.2651,2.266,2.2695,2.2761,2.2771,2.2714,2.2827,2.2846,2.2944,2.2987,2.2918,2.2925,2.3203,2.3208,2.3211,2.3231,0,0,0,0,0,0,2.237,2.2399,2.2438,2.2515,2.2544,2.2685,2.2654,2.2664,2.2709,2.2708,2.2787,2.2798,2.2826,2.2931,2.2952,2.2998,2.2932,2.3199,2.3205,2.321,2.3227,2.3235,2.3243,0,0,0,0,0,2.236,2.2438,2.244,2.2463,2.2594,2.2688,2.2705,2.2735,2.2713,2.2752,2.2794,2.2795,2.2979,2.2941,2.2965,2.3013,2.3197,2.3203,2.321,2.3223,2.3234,2.3243,0,0,0,0,0,0,2.2364,2.2448,2.2451,2.2556,2.2614,2.2689,2.274,2.2745,2.2812,2.2808,2.2844,2.2862,2.2958,2.2996,2.2952,2.3116,2.3086,2.3097,2.3088,2.3098,2.3106,2.3095,2.2939,0,0,0,0,0,2.2377,2.2446,2.2516,2.2601,2.263,2.268,2.2722,2.2741,2.2803,2.2828,2.2877,2.2938,2.301,2.3056,2.3126,2.3232,2.325,2.3277,2.3285,2.3292,2.3301,2.336,2.3373,2.3234,2.3234,2.3234,0,0,2.2405,2.2459,2.2501,2.2603,2.2651,2.2722,2.2701,2.2777,2.283,2.284,2.2935,2.2973,2.3044,2.3146,2.3194,2.318,2.3343,2.33,2.3304,2.3311,2.3368,2.3381,2.3393,2.3239,2.3238,2.3237,0,0,2.2491,2.2539,2.2615,2.2664,2.2736,2.2769,2.2787,2.2861,2.2887,2.2983,2.2992,2.3056,2.3178,2.3228,2.327,2.3375,2.3379,2.3397,2.3439,2.3496,2.3507,2.3517,2.3554,2.3567,2.3406,2.3406,2.3406,0,2.2516,2.2623,2.2654,2.273,2.2775,2.2787,2.2865,2.291,2.3002,2.3033,2.3017,2.3171,2.3219,2.3333,2.3359,2.3392,2.3415,2.3388,2.3503,2.3513,2.3523,2.3559,2.3573,2.3408,2.3408,2.3408,2.3408,0,2.265,2.2724,2.2777,2.2865,2.2916,2.2992,2.3035,2.3084,2.3098,2.3132,2.323,2.3289,2.337,2.3399,2.3414,2.3515,2.3505,2.3495,2.3466,2.3537,2.3572,2.3586,2.341,2.341,2.3409,2.3409,0,0,2.2742,2.2847,2.2866,2.2906,2.2987,2.3045,2.3122,2.3201,2.3242,2.3305,2.337,2.3474,2.3466,2.3513,2.3534,2.3584,2.3664,2.3569,2.3571,2.3584,2.3779,2.3785,2.3801,2.3667,2.3669,2.3672,2.3773,0,2.2837,2.2974,2.3005,2.3123,2.3192,2.3205,2.3272,2.3329,2.3364,2.3427,2.3466,2.3538,2.3522,2.3551,2.3601,2.3643,2.3703,2.3636,2.3728,2.3731,2.3709,2.3819,2.3826,2.3918,2.3787,2.3789,2.3791,0,2.2966,2.3032,2.3157,2.3229,2.3259,2.3319,2.3394,2.3455,2.352,2.3542,2.3594,2.361,2.3691,2.3658,2.377,2.3724,2.3763,2.379,2.3794,2.3803,2.3765,2.3831,2.3949,2.3962,2.3813,2.3811,2.3809,0,2.3021,2.314,2.323,2.3264,2.3351,2.3393,2.3431,2.3494,2.354,2.3606,2.3636,2.3711,2.3752,2.3809,2.3845,2.3817,2.3954,2.3924,2.3975,2.3974,2.4002,2.4,2.4128,2.4029,2.4029,2.4028,2.4028,0,2.3123,2.3199,2.3256,2.3311,2.3397,2.3431,2.3515,2.3553,2.3609,2.3673,2.3689,2.3748,2.3791,2.3857,2.3885,2.3974,2.3992,2.4012,2.4019,2.401,2.4008,2.4036,2.403,2.4032,2.4031,2.403,2.403,0,2.3198,2.3239,2.3338,2.3412,2.3432,2.3492,2.3556,2.361,2.3645,2.3725,2.3745,2.38,2.3878,2.3919,2.4017,2.4036,2.4135,2.4138,2.4113,2.4115,2.4163,2.4158,2.4314,2.4336,2.4222,2.4223,2.4224,0,2.326,2.3319,2.3399,2.3442,2.3481,2.3551,2.3598,2.3634,2.3682,2.3762,2.3807,2.3885,2.395,2.4073,2.4122,2.4197,2.4202,2.4251,2.4213,2.4203,2.4202,2.4198,2.4204,2.4258,2.4259,2.426,2.426,0,2.3366,2.3384,2.3451,2.3525,2.358,2.364,2.37,2.3734,2.3781,2.3834,2.3914,2.3964,2.4063,2.4141,2.422,2.4259,2.4268,2.4272,2.4288,2.4279,2.4262,2.4271,2.413,2.4268,2.4267,2.4267,2.4266,2.4266,2.3437,2.3489,2.3554,2.3628,2.3676,2.3732,2.3786,2.3828,2.3895,2.3978,2.3996,2.408,2.4144,2.425,2.4292,2.4359,2.4349,2.4371,2.4377,2.4382,2.4384,2.4252,2.4373,2.4373,2.4373,2.4373,2.4373,0,2.3543,2.3586,2.3653,2.3736,2.3794,2.3797,2.3863,2.3911,2.3985,2.4044,2.4107,2.4199,2.4274,2.4329,2.4406,2.4449,2.4455,2.4468,2.4465,2.4474,2.4389,2.4367,2.4462,2.4462,2.4462,2.4462,2.4462,2.4462,2.3606,2.3695,2.372,2.3833,2.3875,2.3957,2.3995,2.4046,2.4093,2.4194,2.4257,2.4292,2.435,2.4432,2.4501,2.4515,2.4543,2.4556,2.457,2.4489,2.448,2.4471,2.4451,2.4561,2.4562,2.465,2.465,2.4651]},{"header":{"parameterUnit":"m.s-1","parameterCategory":1,"la1":30.2991,"la2":30.254,"lo1":-89.0895,"lo2":-89.0444,"dy":0.0017,"dx":0.0017,"nx":28,"ny":28,"refTime":"2023-05-01T21:00:00:Z","depth":0,"parameterNumber":3,"parameterNumberName":"V-component_of_WINDS"},"data":[0,0,0,0,0,0,0,0,0,0,0,0,0,0,0,0,0,0,0,0,0,0,0,0,0,0,0,0,0,0,0,0,0,0,0,0,0,0,0,0,0,0,0,0,0,0,0,0,0,0,0,0,0,0,0,0,0,0,1.7052,1.7053,0,1.7121,1.7122,1.7123,1.7075,1.7072,1.707,1.7068,1.7137,1.7141,1.7145,0,0,0,0,0,0,0,0,0,0,0,0,0,1.6875,1.6878,1.7052,1.7053,1.7054,1.7121,1.7122,1.7123,1.7075,1.7072,1.707,1.7067,1.7136,1.7141,1.7145,0,0,0,0,0,0,0,0,0,0,0,0,0,1.6949,1.688,1.7052,1.7038,1.7037,1.7121,1.7122,1.7123,1.7076,1.7072,1.7069,1.7066,1.7135,1.714,1.7146,1.7246,0,0,1.7163,1.7166,0,0,0,0,0,0,0,0,1.6945,1.6955,1.7039,1.7039,1.7039,1.7086,1.7085,1.7164,1.7076,1.7061,1.7068,1.7064,1.7123,1.7129,1.7149,1.7249,1.7252,1.7164,1.7167,1.717,1.7172,0,0,0,0,0,0,0,1.694,1.6952,1.7079,1.704,1.704,1.7027,1.7034,1.71,1.7109,1.7062,1.7059,1.7068,1.7122,1.7144,1.7151,1.7253,1.7164,1.7169,1.7172,1.7175,1.7438,1.7441,0,0,0,0,0,0,1.6936,1.6948,1.7077,1.7081,1.6983,1.7033,1.7041,1.7074,1.7108,1.711,1.707,1.7065,1.7136,1.7144,1.7153,1.7272,1.717,1.7175,1.7179,1.7434,1.7439,1.7442,0,0,0,0,0,0,1.6932,1.6948,1.7074,1.7014,1.7029,1.7039,1.7077,1.7077,1.7099,1.7115,1.7116,1.7091,1.7133,1.7145,1.7223,1.7274,1.7178,1.7183,1.743,1.7436,1.7441,1.7512,0,0,0,0,0,0,1.6928,1.6947,1.6986,1.7015,1.7032,1.7145,1.708,1.7081,1.7109,1.7103,1.7135,1.7137,1.7132,1.7215,1.7229,1.728,1.7188,1.7426,1.7433,1.7439,1.7505,1.7519,1.7531,0,0,0,0,0,1.6921,1.7003,1.6988,1.7004,1.7082,1.7148,1.7158,1.7151,1.7114,1.7153,1.7162,1.7136,1.7266,1.7223,1.7239,1.7292,1.7422,1.7431,1.7438,1.75,1.7516,1.7531,0,0,0,0,0,0,1.698,1.7007,1.6991,1.7085,1.7114,1.714,1.7189,1.7169,1.721,1.7202,1.7191,1.7199,1.7281,1.7294,1.7246,1.7391,1.7338,1.7349,1.7379,1.7396,1.7408,1.7404,1.7192,0,0,0,0,0,1.7004,1.7056,1.7076,1.7157,1.7173,1.7178,1.7207,1.7199,1.7229,1.7241,1.7257,1.7286,1.7333,1.7365,1.7409,1.7506,1.7512,1.7551,1.7564,1.7574,1.7584,1.7636,1.7653,1.7468,1.7468,1.7468,0,0,1.7054,1.7075,1.7109,1.717,1.7192,1.7245,1.7189,1.7248,1.7288,1.725,1.7325,1.7337,1.7369,1.7457,1.7497,1.7471,1.7636,1.7584,1.7592,1.7597,1.7646,1.7663,1.7679,1.7474,1.7473,1.7472,0,0,1.7172,1.7194,1.7263,1.7286,1.732,1.7323,1.734,1.7368,1.7374,1.745,1.7422,1.7468,1.755,1.7574,1.7596,1.7722,1.7699,1.7736,1.7804,1.7854,1.7869,1.7882,1.7926,1.7943,1.7746,1.7747,1.7747,0,1.723,1.731,1.7301,1.7362,1.739,1.7358,1.7427,1.745,1.7496,1.7515,1.7486,1.7587,1.7607,1.7699,1.773,1.7749,1.7767,1.7733,1.7868,1.788,1.7892,1.7935,1.7952,1.7751,1.775,1.775,1.775,0,1.7379,1.7435,1.7487,1.7533,1.7566,1.7631,1.7631,1.7665,1.7653,1.7659,1.7735,1.7757,1.7805,1.7826,1.7815,1.7917,1.79,1.7869,1.7816,1.7915,1.7954,1.797,1.7757,1.7756,1.7754,1.7753,0,0,1.7538,1.7578,1.7597,1.7617,1.7651,1.7694,1.7757,1.7804,1.7833,1.7866,1.7918,1.7987,1.7959,1.7984,1.7976,1.802,1.8117,1.7983,1.7984,1.8008,1.823,1.8253,1.8272,1.8101,1.8104,1.8107,1.8227,0,1.7658,1.7769,1.7762,1.7866,1.7917,1.7886,1.7941,1.7967,1.7973,1.8017,1.8023,1.8072,1.8031,1.8046,1.8088,1.8097,1.8162,1.8088,1.8149,1.8152,1.8143,1.8293,1.8319,1.8431,1.8243,1.8245,1.8247,0,1.7814,1.7853,1.7962,1.7988,1.8009,1.8058,1.81,1.8142,1.8171,1.8172,1.82,1.8184,1.8246,1.8191,1.8275,1.8225,1.8249,1.8257,1.8261,1.8267,1.8206,1.8304,1.8467,1.8484,1.8271,1.827,1.8268,0,1.792,1.7998,1.8074,1.8092,1.8124,1.8159,1.8174,1.8199,1.8227,1.8264,1.8282,1.8324,1.8348,1.8381,1.8376,1.8336,1.8462,1.8407,1.8465,1.8465,1.8494,1.8492,1.8664,1.8508,1.8508,1.8507,1.8507,0,1.8055,1.8123,1.8121,1.8168,1.8242,1.8232,1.8306,1.8317,1.8339,1.8386,1.8361,1.8406,1.8396,1.844,1.8436,1.8507,1.8518,1.852,1.8518,1.8523,1.8523,1.8539,1.8532,1.8512,1.8511,1.851,1.8509,0,1.8186,1.8188,1.8268,1.8291,1.8298,1.8352,1.8372,1.8415,1.8418,1.8478,1.8491,1.8497,1.8547,1.8545,1.8601,1.8599,1.8686,1.8674,1.8677,1.8675,1.8733,1.8728,1.8922,1.8947,1.8774,1.8776,1.8777,0,1.8273,1.8325,1.8354,1.8384,1.8401,1.845,1.8478,1.847,1.8501,1.8536,1.8575,1.8623,1.8661,1.8742,1.875,1.8793,1.8783,1.8848,1.879,1.8792,1.8785,1.8782,1.8787,1.886,1.8862,1.8864,1.8865,0,1.8428,1.8426,1.8469,1.8512,1.8547,1.8581,1.8611,1.8637,1.8631,1.8667,1.8718,1.8748,1.8805,1.8853,1.8894,1.8907,1.8886,1.8883,1.8899,1.8905,1.8904,1.8905,1.8709,1.8879,1.8878,1.8877,1.8876,1.8875,1.854,1.8584,1.8611,1.866,1.8681,1.871,1.8752,1.876,1.8803,1.885,1.8842,1.8899,1.8924,1.8977,1.8994,1.9038,1.9015,1.9038,1.9044,1.905,1.9057,1.8896,1.9045,1.9045,1.9045,1.9044,1.9044,0,1.8693,1.8709,1.8754,1.8797,1.8835,1.8811,1.8843,1.8876,1.8927,1.8953,1.8991,1.9049,1.9094,1.9106,1.9149,1.9182,1.9173,1.9194,1.9192,1.9195,1.9075,1.9057,1.9201,1.9201,1.9201,1.9201,1.9201,1.92,1.8778,1.8851,1.8852,1.8935,1.895,1.9007,1.9027,1.9053,1.9074,1.914,1.9178,1.9185,1.9205,1.9249,1.929,1.9292,1.9309,1.9334,1.9332,1.922,1.9204,1.9189,1.9172,1.9338,1.9338,1.945,1.9451,1.9451]}]]